Location: Cheyres
(46.8153°N, 6.7877°E)
Time: 04:24:20
(UTC+00:00)

Cosmos 1782 Rocket - Pass Details

Date: 11 May 2021
Orbit: 606 x 633 km, 82.5° (Epoch: 18 June)

Event Time Altitude Azimuth Distance (km) Brightness Sun altitude
Rises 23:45:10 0° 345° (NNW) 2,931 8.2 -24.9°
Reaches altitude 10° 23:47:29 10° 340° (NNW) 2,015 7.0 -24.9°
Enters shadow 23:51:23 46° 283° (WNW) 844 4.2 -24.9°
